Coeur d'Alene, ID

8:56 PM PST on January 21, 2018 (GMT -0800)
Coeur D'Alene

Weather History for KCOE - December, 2013

Change the Weather History Date:

Wednesday, December 11, 2013

  Actual Average Record
Temperature  
Mean Temperature 28 °F -  
Max Temperature 33 °F 33 °F 55 °F (2004)
Min Temperature 23 °F 24 °F 8 °F (2000)
Degree Days  
Heating Degree Days 37    
Moisture  
Dew Point 20 °F    
Average Humidity 75    
Maximum Humidity 86    
Minimum Humidity 60    
Precipitation  
Precipitation 0.00 in - - ()
Sea Level Pressure  
Sea Level Pressure 30.36 in    
Wind  
Wind Speed 7 mph (NE)    
Max Wind Speed 12 mph    
Max Gust Speed -    
Visibility 10 miles    
Events      
Averages and records for this station are not official NWS values.
T = Trace of Precipitation, MM = Missing Value Source: NWS Daily Summary

Daily Weather History Graph

Daily Weather History Graph

Search for Another Location

Airport or City:

Trip Planner

Search our weather history database for the weather conditions in past years. The results will help you decide how hot, cold, wet, or windy it might be!

Date:

Astronomy

Dec. 11, 2013 Rise Set
Actual Time 7:26 AM PST 3:55 PM PST
Civil Twilight 6:50 AM PST 4:31 PM PST
Nautical Twilight 6:11 AM PST 5:10 PM PST
Astronomical Twilight 5:33 AM PST 5:47 PM PST
Moon 12:49 PM PST (12/11) 1:32 AM PST (12/11)
Length of Visible Light 9h 40m
Length of Day
8h 28m
Waxing Gibbous, 72% of the Moon is Illuminated
Dec 11
Waxing Gibbous
Dec 17
Full
Dec 25
Last Quarter
Jan 1
New
Jan 7
First Quarter

Hourly Weather History & Observations

Time (PST) Temp. Windchill Dew Point Humidity Pressure Visibility Wind Dir Wind Speed Gust Speed Precip Events Conditions
12:15 AM 23.0 °F 13.1 °F 15.8 °F 74% 30.40 in 10.0 mi NNE 9.2 mph - N/A   Overcast
12:35 AM 23.0 °F 12.4 °F 14.0 °F 68% 30.40 in 10.0 mi NNE 10.4 mph - N/A   Overcast
12:55 AM 23.0 °F 13.9 °F 15.8 °F 74% 30.40 in 10.0 mi NNE 8.1 mph - N/A   Overcast
1:15 AM 23.0 °F 12.4 °F 15.8 °F 74% 30.40 in 10.0 mi NNE 10.4 mph - N/A   Overcast
1:35 AM 23.0 °F 13.9 °F 15.8 °F 74% 30.40 in 10.0 mi NE 8.1 mph - N/A   Overcast
1:55 AM 23.0 °F 13.1 °F 15.8 °F 74% 30.40 in 10.0 mi NNE 9.2 mph - N/A   Overcast
2:15 AM 23.0 °F 13.1 °F 15.8 °F 74% 30.40 in 10.0 mi NNE 9.2 mph - N/A   Overcast
2:35 AM 23.0 °F 13.1 °F 15.8 °F 74% 30.40 in 10.0 mi NNE 9.2 mph - N/A   Overcast
2:55 AM 23.0 °F 12.4 °F 15.8 °F 74% 30.40 in 10.0 mi NNE 10.4 mph - N/A   Overcast
3:15 AM 23.0 °F 13.1 °F 15.8 °F 74% 30.40 in 10.0 mi NE 9.2 mph - N/A   Overcast
3:35 AM 23.0 °F 14.7 °F 15.8 °F 74% 30.39 in 10.0 mi NNE 6.9 mph - N/A   Overcast
3:55 AM 23.0 °F 14.7 °F 15.8 °F 74% 30.39 in 10.0 mi NE 6.9 mph - N/A   Overcast
4:15 AM 23.0 °F 13.9 °F 15.8 °F 74% 30.38 in 10.0 mi ENE 8.1 mph - N/A   Overcast
4:35 AM 23.0 °F 13.9 °F 15.8 °F 74% 30.38 in 10.0 mi NE 8.1 mph - N/A   Overcast
4:55 AM 23.0 °F 14.7 °F 17.6 °F 80% 30.38 in 10.0 mi NE 6.9 mph - N/A   Overcast
5:15 AM 23.0 °F 13.9 °F 15.8 °F 74% 30.38 in 10.0 mi NE 8.1 mph - N/A   Overcast
5:35 AM 23.0 °F 13.9 °F 17.6 °F 80% 30.38 in 10.0 mi NE 8.1 mph - N/A   Overcast
5:55 AM 23.0 °F 13.1 °F 17.6 °F 80% 30.38 in 10.0 mi NE 9.2 mph - N/A   Overcast
6:15 AM 23.0 °F 13.9 °F 17.6 °F 80% 30.38 in 10.0 mi ENE 8.1 mph - N/A   Overcast
6:35 AM 24.8 °F 15.3 °F 17.6 °F 74% 30.38 in 10.0 mi NNE 9.2 mph - N/A   Overcast
6:55 AM 24.8 °F 14.6 °F 17.6 °F 74% 30.38 in 10.0 mi NE 10.4 mph - N/A   Overcast
7:15 AM 24.8 °F 16.9 °F 17.6 °F 74% 30.38 in 10.0 mi NE 6.9 mph - N/A   Overcast
7:35 AM 24.8 °F 16.1 °F 17.6 °F 74% 30.38 in 10.0 mi NE 8.1 mph - N/A   Overcast
7:55 AM 24.8 °F 16.9 °F 17.6 °F 74% 30.38 in 10.0 mi ENE 6.9 mph - N/A   Overcast
8:15 AM 24.8 °F 17.9 °F 17.6 °F 74% 30.38 in 10.0 mi NE 5.8 mph - N/A   Overcast
11:15 AM 28.4 °F 20.4 °F 19.4 °F 69% 30.39 in 10.0 mi NNE 8.1 mph - N/A   Overcast
11:35 AM 28.4 °F 21.2 °F 21.2 °F 74% 30.38 in 10.0 mi NE 6.9 mph - N/A   Overcast
11:55 AM 28.4 °F 22.2 °F 21.2 °F 74% 30.38 in 10.0 mi NNE 5.8 mph - N/A   Overcast
12:15 PM 30.2 °F 25.4 °F 21.2 °F 69% 30.38 in 10.0 mi NNE 4.6 mph - N/A   Overcast
12:35 PM 30.2 °F 23.4 °F 21.2 °F 69% 30.37 in 10.0 mi NNE 6.9 mph - N/A   Overcast
12:55 PM 30.2 °F 24.3 °F 21.2 °F 69% 30.37 in 10.0 mi NE 5.8 mph - N/A   Overcast
1:15 PM 30.2 °F 24.3 °F 21.2 °F 69% 30.37 in 10.0 mi NNE 5.8 mph - N/A   Overcast
1:35 PM 32.0 °F 27.5 °F 23.0 °F 69% 30.36 in 10.0 mi NNE 4.6 mph - N/A   Overcast
1:55 PM 33.8 °F - 23.0 °F 65% 30.35 in 10.0 mi Calm Calm - N/A   Overcast
2:15 PM 33.8 °F 29.6 °F 21.2 °F 60% 30.35 in 10.0 mi NNE 4.6 mph - N/A   Overcast
2:35 PM 33.8 °F 30.8 °F 23.0 °F 65% 30.34 in 10.0 mi NNE 3.5 mph - N/A   Overcast
2:55 PM 33.8 °F 28.6 °F 23.0 °F 65% 30.34 in 10.0 mi NNE 5.8 mph - N/A   Mostly Cloudy
3:15 PM 32.0 °F 25.6 °F 23.0 °F 69% 30.34 in 10.0 mi NNE 6.9 mph - N/A   Mostly Cloudy
3:35 PM 32.0 °F 28.7 °F 23.0 °F 69% 30.34 in 10.0 mi NNE 3.5 mph - N/A   Overcast
3:55 PM 30.2 °F 23.4 °F 21.2 °F 69% 30.33 in 10.0 mi NNE 6.9 mph - N/A   Overcast
4:15 PM 30.2 °F 24.3 °F 21.2 °F 69% 30.33 in 10.0 mi NNE 5.8 mph - N/A   Overcast
4:35 PM 30.2 °F 24.3 °F 23.0 °F 75% 30.34 in 10.0 mi North 5.8 mph - N/A   Overcast
4:55 PM 30.2 °F 21.9 °F 21.2 °F 69% 30.35 in 10.0 mi NNE 9.2 mph - N/A   Overcast
5:15 PM 30.2 °F 24.3 °F 23.0 °F 75% 30.34 in 10.0 mi ENE 5.8 mph - N/A   Overcast
5:35 PM 28.4 °F 23.3 °F 21.2 °F 74% 30.34 in 10.0 mi ENE 4.6 mph - N/A   Overcast
5:55 PM 28.4 °F 22.2 °F 21.2 °F 74% 30.34 in 10.0 mi NNE 5.8 mph - N/A   Overcast
6:15 PM 28.4 °F 22.2 °F 21.2 °F 74% 30.34 in 10.0 mi NNE 5.8 mph - N/A   Overcast
6:35 PM 28.4 °F - 23.0 °F 80% 30.34 in 10.0 mi Calm Calm - N/A   Overcast
6:55 PM 28.4 °F - 21.2 °F 74% 30.33 in 10.0 mi Calm Calm - N/A   Overcast
7:15 PM 28.4 °F - 21.2 °F 74% 30.32 in 10.0 mi Calm Calm - N/A   Overcast
7:35 PM 28.4 °F - 23.0 °F 80% 30.31 in 10.0 mi Calm Calm - N/A   Overcast
7:55 PM 28.4 °F 24.6 °F 23.0 °F 80% 30.31 in 10.0 mi North 3.5 mph - N/A   Overcast
8:15 PM 28.4 °F 23.3 °F 24.8 °F 86% 30.31 in 10.0 mi NNE 4.6 mph - N/A   Overcast
8:35 PM 28.4 °F - 24.8 °F 86% 30.30 in 10.0 mi Calm Calm - N/A   Scattered Clouds
8:55 PM 26.6 °F 21.2 °F 23.0 °F 86% 30.30 in 10.0 mi NNE 4.6 mph - N/A   Partly Cloudy
9:15 PM 26.6 °F 19.1 °F 21.2 °F 80% 30.30 in 10.0 mi NNE 6.9 mph - N/A   Clear
9:35 PM 26.6 °F 20.0 °F 23.0 °F 86% 30.30 in 10.0 mi NE 5.8 mph - N/A   Clear
9:55 PM 26.6 °F 16.2 °F 23.0 °F 86% 30.31 in 10.0 mi NNE 11.5 mph - N/A   Clear
10:15 PM 26.6 °F 18.2 °F 21.2 °F 80% 30.31 in 10.0 mi NNE 8.1 mph - N/A   Clear
10:35 PM 26.6 °F 17.5 °F 23.0 °F 86% 30.30 in 10.0 mi NE 9.2 mph - N/A   Clear
10:55 PM 24.8 °F 15.3 °F 21.2 °F 86% 30.30 in 10.0 mi NE 9.2 mph - N/A   Clear
11:15 PM 24.8 °F 16.1 °F 21.2 °F 86% 30.30 in 10.0 mi NE 8.1 mph - N/A   Clear
11:35 PM 24.8 °F 16.1 °F 21.2 °F 86% 30.30 in 10.0 mi NE 8.1 mph - N/A   Clear
11:55 PM 24.8 °F 16.1 °F 21.2 °F 86% 30.29 in 10.0 mi NE 8.1 mph - N/A   Clear